Submittal Forms
Current Contests
Recent Contests

Club Activity Tracker - DFW Contest Group (from club selection on form)

Recent postings for the selected club or group are listed below. Other than the call used, all calls listed are only those associated with the club or group. Click on a call to see the details of the posting.
Status Key: new=new posting, update=update prior posting, move=change club/group, delete=delete prior posting.

Sort by   for past

TimestampCallContestClassPowerScoreStatus
2020-05-28 04:09:13K5YZWCWopsTSingle OpHP1,330new5615
2020-05-28 04:09:13W8OVCWopsTSingle OpLP3,721new5615
2020-05-28 04:03:56KT5VCWopsTSingle OpLP441new5613
2020-05-28 04:03:02KT5VCWopsTSingle OpLP2,704new5614
2020-05-28 04:02:48K1DW(@AG5JW)CWopsTSingle OpLP5,600new5615
2020-05-28 04:02:39N5XECWopsTSingle OpLP3,192new5615
2020-05-28 04:02:08KT5VCWopsTSingle OpLP5,041new5615
2020-05-28 04:01:37W0TGCWopsTSingle OpLP3,721new5615
2020-05-28 03:20:32K5QRCWopsTSingle OpLP400new5615
2020-05-27 22:36:28K1DW(@KN5O)CWopsTSingle OpLP961new5614
 
2020-05-27 20:32:23K5YZWCWopsTSingle OpHP1,225new5614
2020-05-27 20:10:32K5QRCWopsTSingle OpHP3,969new5614
2020-05-27 20:04:38N5IRCWopsTSingle OpHP1,974new5614
2020-05-27 20:03:43WA5LXSCWopsTSingle OpHP729new5614
2020-05-27 20:03:38W8OVCWopsTSingle OpLP2,256new5614
2020-05-27 20:02:38K5AXCWopsTSingle OpLP5,852new5614
2020-05-27 20:02:21K5MECWopsTSingle OpLP3,477new5614
2020-05-27 20:02:14W0UOCWopsTSingle OpLP6,400new5614
2020-05-27 20:02:09W0TGCWopsTSingle OpLP2,209new5614
2020-05-27 20:01:43W0VXCWopsTSingle OpHP6,636new5614
 
2020-05-27 19:46:27N5XECWopsTSingle OpLP1,225new5614
2020-05-27 14:06:24KG5VKCWopsTSingle OpHP3,843new5613
2020-05-27 14:05:16WA5LXSCWopsTSingle OpHP841new5613
2020-05-27 14:05:07W8OVCWopsTSingle OpLP2,115new5613
2020-05-27 14:04:21K5QRCWopsTSingle OpLP3,136new5613
2020-05-27 14:03:19K5AXCWopsTSingle OpHP17,161new5613
2020-05-27 14:02:21W0VXCWopsTSingle OpHP8,455new5613
2020-05-27 14:01:54K5MECWopsTSingle OpLP2,970new5613
2020-05-27 14:01:26W0TGCWopsTSingle OpLP2,397new5613
2020-05-27 13:52:34N5XECWopsTSingle OpLP1,890new5613
 
2020-05-27 13:20:57K1DW(@AG5JW)CWopsTSingle OpLP484new5613
2020-05-27 02:02:15KI5MMWWSACSOAB-OMLP3,627update5606
2020-05-26 18:27:53NA5MRYOps WeekSingle OpHP3new5610
2020-05-21 04:05:00WA5LXSCWopsTSingle OpHP1,156new5594
2020-05-21 04:04:05K5YZWCWopsTSingle OpHP1,599new5594
2020-05-21 04:02:38N5IRCWopsTSingle OpHP2,800new5594
2020-05-21 04:02:29K1DW(@AG5JW)CWopsTSingle OpLP4,284new5594
2020-05-21 04:01:44K5MECWopsTSingle OpLP2,856new5594
2020-05-21 04:01:13W0TGCWopsTSingle OpLP2,209new5594
2020-05-21 03:37:16K5QRCWopsTSingle OpLP576new5594
 
2020-05-21 03:20:52N5XECWopsTSingle OpLP400new5594
2020-05-20 20:06:44W8OVCWopsTSingle OpLP1,849new5593
2020-05-20 20:06:16WA5LXSCWopsTSingle OpHP529new5593
2020-05-20 20:03:25K5QRCWopsTSingle OpLP3,721new5593
2020-05-20 20:02:43K5AXCWopsTSingle OpHP12,544new5593
2020-05-20 20:02:35K5MECWopsTSingle OpLP1,980new5593
2020-05-20 20:02:17K5YZWCWopsTSingle OpHP1,849new5593
2020-05-20 20:01:50W0TGCWopsTSingle OpLP2,304new5593
2020-05-20 19:55:09N5XECWopsTSingle OpLP1,221new5593
2020-05-20 19:10:13K1DW(@KN5O)CWopsTSingle OpLP100new5593
 
2020-05-20 16:53:12WA5LXSCWopsTSingle OpHP784new5592
2020-05-20 14:53:43KG5VKCWopsTSingle OpHP4,221new5592
2020-05-20 14:12:16K5YZWCWopsTSingle OpHP1,640new5592
2020-05-20 14:07:58W8OVCWopsTSingle OpLP1,849new5592
2020-05-20 14:06:01K5QRCWopsTSingle OpLP1,936new5592
2020-05-20 14:04:02K1DW(@AG5JW)CWopsTSingle OpLP5,037new5592
2020-05-20 14:02:57W0VXCWopsTSingle OpHP441new5592
2020-05-20 14:02:25K5AXCWopsTSingle OpHP10,302new5592
2020-05-20 14:01:25W0TGCWopsTSingle OpLP1,440new5592
2020-05-20 13:21:40N5XECWopsTSingle OpLP400new5592
 
2020-05-19 20:20:40NA5MRYOps WeekSingle OpHP2new5589
2020-05-18 14:40:44W5GNHamventionSingle OpHP107new5569
2020-05-17 13:06:16KG5VKHamventionSingle OpHP35new5569
2020-05-17 12:22:44WB5KHamventionSingle OpLP31new5569
2020-05-17 01:10:27K5QRHamventionSingle OpLP208new5569
2020-05-17 00:08:28WA5LXSHamventionSingle OpHP63new5569
2020-05-16 20:05:51NA5MRYOps WkEndSO WiresHP36,828new5585
2020-05-15 03:02:42NA5MNCCC RY-SprintSingle OpLP168update5579
2020-05-15 02:43:39NA5MNCCC SprintSingle OpHP168new5580
2020-05-14 21:37:37NA5MRYOps WeekSingle OpHP5new5578
 
2020-05-14 04:04:25WA5LXSCWopsTSingle OpHP729new5576
2020-05-14 04:04:05K5YZWCWopsTSingle OpHP1,849new5576
2020-05-14 04:02:27K1DW(@AG5JW)CWopsTSingle OpLP6,970new5576
2020-05-14 04:01:57KT5VCWopsTSingle OpLP5,184new5576
2020-05-14 04:01:28W0TGCWopsTSingle OpLP1,974new5576
2020-05-14 03:48:45K5QRCWopsTSingle OpLP528new5576
2020-05-14 03:15:13N5XECWopsTSingle OpLP225new5576
2020-05-14 03:14:50KG5VKCWopsTSingle OpHP6,889new5575
2020-05-13 20:06:05K5YZWCWopsTSingle OpHP1,599new5575
2020-05-13 20:03:54WA5LXSCWopsTSingle OpHP576new5575
 
2020-05-13 20:03:54K5QRCWopsTSingle OpLP2,601new5575
2020-05-13 20:02:05K1DW(@KN5O)CWopsTSingle OpLP6,000new5575
2020-05-13 20:01:56KT5VCWopsTSingle OpLP1,722new5575
2020-05-13 20:01:44K5MECWopsTSingle OpLP2,254new5575
2020-05-13 19:36:31W0TGCWopsTSingle OpLP676new5575
2020-05-13 14:07:13KG5VKCWopsTSingle OpHP4,899new5574
2020-05-13 14:03:10K5QRCWopsTSingle OpLP2,700new5574
2020-05-13 14:02:44K1DW(@AG5JW)CWopsTSingle OpLP3,599new5574
2020-05-13 14:01:55K5MECWopsTSingle OpLP2,024new5574
2020-05-13 14:01:28W0TGCWopsTSingle OpLP1,292new5574
 
2020-05-11 15:00:39KV5W50SprngSprntSingle OpLP2,046update5567
2020-05-10 18:14:25AD5LUVolta RTTYSOABLP3,354,000new5563
2020-05-10 15:16:58K5QRCQ-MSOSB/20CWHP11,349update5564
2020-05-10 02:58:28K5ND50SprngSprntSingle OpLP792new5567
2020-05-10 02:12:15WA5LXSArQPSOMixedHP1,776new5565
2020-05-10 01:56:08K5MEArQPSOCWLP1,140new5565
2020-05-08 02:33:38NA5MNCCC RY-SprintSingle OpLP110new5561
2020-05-07 19:41:21NA5MRYOps WeekSingle OpHP4new5560
2020-05-07 17:03:11W8OVCWopsTSingle OpLP2,500update5559
2020-05-07 05:35:35K1DW(@AG5JW)CWopsTSingle OpLP6,400new5559
 
2020-05-07 04:07:08K5YZWCWopsTSingle OpHP1,521new5559
2020-05-07 04:03:31WA5LXSCWopsTSingle OpHP2,025new5559
2020-05-07 04:03:06W0TGCWopsTSingle OpLP2,116new5559
2020-05-07 04:01:42KT5VCWopsTSingle OpLP7,921new5559
2020-05-07 03:58:28N5XECWopsTSingle OpLP3,600new5559
2020-05-07 03:27:28K5QRCWopsTSingle OpLP400new5559
2020-05-07 02:16:12KT5VCWopsTSingle OpLP4,899new5557
2020-05-07 02:15:19KT5VCWopsTSingle OpLP1,764new5558
2020-05-06 21:09:40WA5LXSCWopsTSingle OpHP529new5558
2020-05-06 20:04:20K5YZWCWopsTSingle OpHP625new5558
 
2020-05-06 20:03:41W8OVCWopsTSingle OpLP1,369new5558
2020-05-06 20:03:15K1DW(@KN5O)CWopsTSingle OpLP6,083new5558
2020-05-06 20:03:08K5QRCWopsTSingle OpLP1,369new5558
2020-05-06 20:02:08K5MECWopsTSingle OpLP2,809new5558
2020-05-06 20:01:23W0TGCWopsTSingle OpLP1,444new5558
2020-05-06 19:28:12N5XECWopsTSingle OpLP625new5558
2020-05-06 14:08:34K5QRCWopsTSingle OpLP1,056new5557
2020-05-06 14:05:17WA5LXSCWopsTSingle OpHP1,156new5557
2020-05-06 14:01:58W8OVCWopsTSingle OpLP2,025new5557
2020-05-06 14:01:39K5MECWopsTSingle OpLP1,764new5557
 
2020-05-06 14:01:37W0TGCWopsTSingle OpLP1,720new5557
2020-05-06 13:59:30K1DW(@AG5JW)CWopsTSingle OpLP5,328new5557
2020-05-06 13:45:55N5XECWopsTSingle OpLP1,444new5557
2020-05-05 19:00:24NA5MRYOps WeekSingle OpHP2new5555
2020-05-04 19:28:06WA5LXSInQPSingle OpHP50new5545
2020-05-04 19:24:05WA5LXSNewEngQPSingle OpHP3,596new5547
2020-05-04 19:20:29WA5LXSDeQPSingle OpHP270new5546
2020-05-04 19:15:12WA5LXS7QPSO(A)CWHP3,741new5544
2020-05-02 21:04:32NA5MRYOps WkEndSO WiresHP17,714new5549
2020-05-01 02:24:39NA5MNCCC RY-SprintSingle OpLP56new5539
 
2020-04-30 23:49:27NA5MRYOps WeekSingle OpHP3new5532
2020-04-30 04:04:53W8OVCWopsTSingle OpLP3,249new5537
2020-04-30 04:03:02K5YZWCWopsTSingle OpHP1,600new5537
2020-04-30 04:02:26K1DW(@AG5JW)CWopsTSingle OpLP7,216new5537
2020-04-30 04:01:44W0TGCWopsTSingle OpLP2,601new5537
2020-04-30 04:01:24KT5VCWopsTSingle OpLP4,900new5537
2020-04-30 04:01:07N5XECWopsTSingle OpLP2,756new5537
2020-04-30 03:33:28K5QRCWopsTSingle OpLP484new5537
2020-04-29 21:38:41KT5VCWopsTSingle OpLP2,304new5535
2020-04-29 21:36:20KT5VCWopsTSingle OpLP2,208new5536
 
2020-04-29 20:58:31WA5LXSCWopsTSingle OpHP484new5536
2020-04-29 20:07:18K5YZWCWopsTSingle OpHP1,806new5536
2020-04-29 20:05:22W8OVCWopsTSingle OpLP1,764new5536
2020-04-29 20:03:40K5QRCWopsTSingle OpLP2,862new5536
2020-04-29 20:01:59K1DW(@KN5O)CWopsTSingle OpLP7,216new5536
2020-04-29 20:01:40K5MECWopsTSingle OpLP3,074new5536
2020-04-29 20:00:16W0VXCWopsTSingle OpHP3,355new5536
2020-04-29 19:56:08N5IRCWopsTSingle OpHP2,500new5536
2020-04-29 19:50:25N5XECWopsTSingle OpLP2,025new5536
2020-04-29 19:35:11W0TGCWopsTSingle OpLP900new5536
 
2020-04-29 15:29:14KG5VKCWopsTSingle OpHP900new5535
2020-04-29 14:15:33K5QRCWopsTSingle OpLP2,444new5535
2020-04-29 14:04:28W8OVCWopsTSingle OpLP1,892new5535
2020-04-29 14:02:30WA5LXSCWopsTSingle OpHP729new5535
2020-04-29 14:01:31K5MECWopsTSingle OpLP1,332new5535
2020-04-29 14:00:23K1DW(@KN5O)CWopsTSingle OpLP100new5535
2020-04-29 13:45:09W0TGCWopsTSingle OpLP484new5535
2020-04-29 13:33:40W0VXCWopsTSingle OpHP676new5535
2020-04-29 13:17:31N5XECWopsTSingle OpLP225new5535
2020-04-28 20:16:56NA5MRYOps WeekSingle OpHP5new